DW8750 Weather Reports


Display with metric or nautical units.
time (UTC)temp
F
wind
direction
speed
MPH
gust
MPH
rain 1hr
in
rain 24hr
in
rain mn
in
humidity
%
barometer
mb
20260904223248 79 179 3.0 6.0 0.00 0.00 0.00 68 1019.7
20260904222248 79 166 2.0 5.0 0.00 0.00 0.00 67 1019.6
20260904221250 79 200 3.0 5.0 0.00 0.00 0.00 68 1019.7
20260904220250 79 220 3.0 5.0 0.00 0.00 0.00 70 1019.7
20260904215245 79 200 3.0 5.0 0.00 0.00 0.00 72 1019.7
20260904214248 79 217 3.0 5.0 0.00 0.00 0.00 75 1019.7
20260904213244 80 219 3.0 5.0 0.00 0.00 0.00 76 1019.7
20260904212243 80 213 3.0 7.0 0.00 0.00 0.00 78 1019.8
20260904205243 80 210 4.0 6.0 0.00 0.00 0.00 78 1020.0
20260904204244 80 177 4.0 7.0 0.00 0.00 0.00 78 1019.9
20260904201249 80 259 4.0 6.0 0.00 0.00 0.00 78 1020.1
20260904200248 81 215 3.0 5.0 0.00 0.00 0.00 77 1020.2
20260904195253 81 225 2.0 4.0 0.00 0.00 0.00 77 1020.2
20260904194249 81 198 3.0 5.0 0.00 0.00 0.00 77 1020.2
20260904193242 82 205 1.0 3.0 0.00 0.00 0.00 77 1020.2
20260904192243 82 196 0.0 0.0 0.00 0.00 0.00 77 1020.1
20260904191245 82 196 0.0 0.0 0.00 0.00 0.00 77 1020.0
20260904190241 82 188 0.0 0.0 0.00 0.00 0.00 77 1019.8
20260904185245 83 188 0.0 0.0 0.00 0.00 0.00 76 1019.7
20260904184241 83 188 0.0 2.0 0.00 0.00 0.00 76 1019.6
20260904183241 83 67 1.0 2.0 0.00 0.00 0.00 76 1019.4
20260904182242 83 67 1.0 2.0 0.00 0.00 0.00 76 1019.3
20260904181243 83 67 1.0 2.0 0.00 0.00 0.00 76 1019.1
20260904180241 83 67 1.0 3.0 0.00 0.00 0.00 76 1019.1
20260904175240 84 36 2.0 4.0 0.00 0.00 0.00 75 1018.9
20260904174240 84 36 1.0 4.0 0.00 0.00 0.00 75 1018.8
20260904173240 85 15 2.0 3.0 0.00 0.00 0.00 74 1018.8
20260904172238 85 15 2.0 4.0 0.00 0.00 0.00 73 1018.8
20260904171238 85 15 2.0 4.0 0.00 0.00 0.00 73 1018.8
20260904170240 86 0 2.0 4.0 0.00 0.00 0.00 72 1018.6
20260904165238 86 350 2.0 4.0 0.00 0.00 0.00 71 1018.7
20260904161238 86 5 3.0 8.0 0.00 0.00 0.00 71 1018.6
20260904160236 86 355 4.0 8.0 0.00 0.00 0.00 71 1018.6
20260904155236 86 355 4.0 8.0 0.00 0.00 0.00 70 1018.5
20260904153242 86 350 4.0 9.0 0.00 0.00 0.00 70 1018.5
20260904152236 86 5 5.0 9.0 0.00 0.00 0.00 70 1018.5
20260904151230 86 336 5.0 10.0 0.00 0.00 0.00 71 1018.5
20260904150230 86 34 5.0 10.0 0.00 0.00 0.00 69 1018.5
20260904145230 87 13 5.0 10.0 0.00 0.00 0.00 70 1018.4
20260904144230 86 337 6.0 10.0 0.00 0.00 0.00 70 1018.4
20260904143228 87 5 6.0 10.0 0.00 0.00 0.00 69 1018.4
20260904142226 87 342 7.0 12.0 0.00 0.00 0.00 68 1018.4
20260904141226 87 309 7.0 11.0 0.00 0.00 0.00 68 1018.4
20260904135229 87 351 6.0 11.0 0.00 0.00 0.00 64 1018.3
20260904134237 87 0 6.0 11.0 0.00 0.00 0.00 70 1018.4
20260904133226 87 30 7.0 12.0 0.00 0.00 0.00 70 1018.5
20260904132227 87 0 7.0 14.0 0.00 0.00 0.00 70 1018.6
20260904131226 87 355 6.0 12.0 0.00 0.00 0.00 69 1018.6
20260904130232 86 344 7.0 14.0 0.00 0.00 0.00 70 1018.6
20260904125229 86 340 8.0 13.0 0.00 0.00 0.00 70 1018.7
20260904124225 86 0 8.0 12.0 0.00 0.00 0.00 70 1018.7
20260904123226 86 31 8.0 14.0 0.00 0.00 0.00 71 1018.7
20260904122225 86 0 8.0 13.0 0.00 0.00 0.00 71 1018.9
20260904121221 87 321 8.0 15.0 0.00 0.00 0.00 72 1018.9
20260904120221 86 346 8.0 14.0 0.00 0.00 0.00 70 1018.9
20260904115221 87 29 8.0 14.0 0.00 0.00 0.00 70 1018.9
20260904114222 87 36 6.0 13.0 0.00 0.00 0.00 71 1018.9
20260904113229 86 333 8.0 16.0 0.00 0.00 0.00 72 1018.9
20260904112221 85 321 10.0 16.0 0.00 0.00 0.00 70 1019.0
20260904111223 86 11 9.0 14.0 0.00 0.00 0.00 71 1019.0
20260904105218 85 319 10.0 16.0 0.00 0.00 0.00 72 1018.9
20260904104222 86 0 9.0 15.0 0.00 0.00 0.00 70 1019.0
20260904103221 86 12 8.0 15.0 0.00 0.00 0.00 71 1018.9
20260904102219 86 329 8.0 14.0 0.00 0.00 0.00 71 1019.0
20260904101218 85 12 8.0 16.0 0.00 0.00 0.00 71 1019.1
20260904100220 85 0 8.0 13.0 0.00 0.00 0.00 72 1019.1
20260904094219 85 319 8.0 15.0 0.00 0.00 0.00 72 1019.1
20260904093221 85 336 7.0 13.0 0.00 0.00 0.00 72 1019.1
20260904092226 85 318 8.0 14.0 0.00 0.00 0.00 72 1019.0
20260904091223 85 9 8.0 13.0 0.00 0.00 0.00 72 1019.1
20260904090223 85 342 7.0 13.0 0.00 0.00 0.00 72 1019.1
20260904084220 84 341 6.0 12.0 0.00 0.00 0.00 71 1019.1
20260904082218 85 355 4.0 13.0 0.00 0.00 0.00 70 1019.0
20260904081221 85 320 5.0 10.0 0.00 0.00 0.00 71 1018.9
20260904080222 84 29 3.0 8.0 0.00 0.00 0.00 71 1018.8
20260904075219 84 279 5.0 11.0 0.00 0.00 0.00 71 1018.7
20260904073221 84 292 4.0 8.0 0.00 0.00 0.00 70 1018.5
20260904072217 84 304 4.0 8.0 0.00 0.00 0.00 70 1018.4
20260904071215 84 221 4.0 8.0 0.00 0.00 0.00 70 1018.3
20260904065221 83 279 4.0 8.0 0.00 0.00 0.00 69 1018.4
20260904064218 83 227 3.0 7.0 0.00 0.00 0.00 70 1018.5
20260904063215 82 235 4.0 7.0 0.00 0.00 0.00 71 1018.3
20260904062221 82 257 4.0 8.0 0.00 0.00 0.00 73 1018.2
20260904060213 81 257 4.0 7.0 0.00 0.00 0.00 75 1018.2
20260904055213 80 198 4.0 5.0 0.00 0.00 0.00 76 1018.3
20260904054214 80 221 4.0 6.0 0.00 0.00 0.00 78 1018.3
20260904050224 79 190 4.0 6.0 0.00 0.00 0.00 79 1018.0
20260904045220 79 208 4.0 6.0 0.00 0.00 0.00 79 1017.9
20260904044220 78 211 4.0 6.0 0.00 0.00 0.00 80 1017.9
20260904043222 78 202 4.0 6.0 0.00 0.00 0.00 80 1017.8
20260904041211 78 221 4.0 6.0 0.00 0.00 0.00 81 1017.8
20260904035208 78 213 4.0 5.0 0.00 0.00 0.00 81 1017.8
20260904033208 78 182 3.0 6.0 0.00 0.00 0.00 81 1017.7
20260904032208 78 209 3.0 6.0 0.00 0.00 0.00 81 1017.8
20260904031208 78 209 3.0 5.0 0.00 0.00 0.00 81 1017.7
20260904030209 78 217 3.0 5.0 0.00 0.00 0.00 81 1017.7
20260904025210 78 173 4.0 6.0 0.00 0.00 0.00 81 1017.7
20260904023204 78 186 4.0 8.0 0.00 0.00 0.00 81 1017.8
20260904022204 78 194 4.0 6.0 0.00 0.00 0.00 80 1017.8
20260904021206 78 222 4.0 7.0 0.00 0.00 0.00 81 1017.8
20260904020208 78 209 4.0 6.0 0.00 0.00 0.00 81 1017.7
20260904015204 78 200 4.0 6.0 0.00 0.00 0.00 81 1017.8
20260904014205 78 209 4.0 6.0 0.00 0.00 0.00 81 1017.8
20260904013204 78 211 3.0 5.0 0.00 0.00 0.00 81 1017.8
20260904012207 78 195 3.0 6.0 0.00 0.00 0.00 81 1017.7
20260904011206 79 197 3.0 6.0 0.00 0.00 0.00 81 1017.7
20260904010204 79 193 2.0 6.0 0.00 0.00 0.00 81 1017.6
20260904005202 79 203 3.0 6.0 0.00 0.00 0.00 81 1017.5
20260904003202 79 190 3.0 6.0 0.00 0.00 0.00 80 1017.6
20260904002202 80 205 4.0 6.0 0.00 0.00 0.00 80 1017.7
20260904001202 80 165 4.0 7.0 0.00 0.00 0.00 80 1017.7
20260904000203 80 218 4.0 6.0 0.00 0.00 0.00 80 1017.9
20260903234207 80 234 3.0 5.0 0.00 0.00 0.00 80 1017.9
20260903233159 80 240 4.0 6.0 0.00 0.00 0.00 79 1018.1
20260903232202 80 213 4.0 7.0 0.00 0.00 0.00 79 1018.0
20260903231159 80 267 4.0 6.0 0.00 0.00 0.00 79 1018.1
20260903230200 81 205 2.0 5.0 0.00 0.00 0.00 78 1018.1
20260903225158 81 184 2.0 4.0 0.00 0.00 0.00 78 1018.1
20260903224157 81 242 3.0 6.0 0.00 0.00 0.00 78 1018.0